Content
SEND FEEDBACK

Daily
Averages
Monthly
Summary
United Kingdom

LONDON, ENGLAND


Home > Europe > United Kingdom > England
Elevation: 203 feet     Latitude: 51 09N     Longitude: 000 11W

WEATHER
 
SELECT A DAY
Number of Records: 292,281;   Date Range: 7/1/96 - 7/9/14
 
SHARE

PRINT THIS DATA

[ ← Previous Day ]
WEATHER ALMANAC - AUGUST 1, 2013
[ Next Day → ]
[ °C ]   °F
Weather ElementAverageHighLow
Temperature74.7 °F89.6 °F (3:20 pm)59 °F (4:20 am)
Dewpoint62.3 °F66.2 °F (9:20 am)57.2 °F (4:20 am)
Humidity69 %100 % (4:50 am)38 % (3:50 pm)
Barometer29.82 in29.95 in (12:50 am)29.71 in (5:50 pm)
Wind Speed7 mph12.7 mph (4:20 pm)
Wind Gust26.5 mph (4:20 pm)
Weather ElementAverage
Visibility3.6 mi
Wind DirectionESE (111.7 °)

Weather ElementTotal
Precipitation---
Cooling Degree Days9.3 (Base 65)
Growing Degree Days24.3 (Base 50)
Averaged from 47 records on August 1, 2013
WEATHER CONDITIONS BREAKOUT
WIND DIRECTION BREAKOUT
WEATHER BY HOUR - AUGUST 1, 2013
[ °C ]   °F
Local TimeTemperatureDewpointHumidityBarometerVisibilityWind DirectionWind SpeedGust SpeedPrecipitationEventsConditions
12:50 AM64.4 °F60.8 °F88 %29.95 in6.2 miVariable2.3 mphOvercast
1:20 AM64.4 °F60.8 °F88 %29.95 in6.2 miVariable3.5 mphOvercast
1:50 AM62.6 °F60.8 °F94 %29.95 in6.2 miVariable3.5 mphMostly Cloudy
2:20 AM62.6 °F60.8 °F94 %29.95 in4.3 miVariable2.3 mphScattered Clouds
2:50 AM62.6 °F60.8 °F94 %29.95 in3.7 miCalmMostly Cloudy
3:20 AM60.8 °F59.0 °F94 %29.92 in3.7 miCalmPartly Cloudy
3:50 AM60.8 °F59.0 °F94 %29.92 in4.3 miVariable3.5 mphPartly Cloudy
4:20 AM59.0 °F57.2 °F94 %29.92 in1.6 miVariable3.5 mphPartly Cloudy
4:50 AM59.0 °F59.0 °F100 %29.92 in0.5 miEast (80°)4.6 mphFogFog
5:20 AM59.0 °F59.0 °F100 %29.89 in0.2 miENE (60°)4.6 mphFogFog
5:50 AM59.0 °F59.0 °F100 %29.89 in0.3 miENE (70°)4.6 mphFogFog
6:20 AM59.0 °F59.0 °F100 %29.89 in1.6 miEast (90°)4.6 mphPartly Cloudy
6:50 AM59.0 °F59.0 °F100 %29.89 in1.9 miEast (80°)5.8 mphPartly Cloudy
7:20 AM60.8 °F60.8 °F100 %29.89 in3.7 miENE (60°)5.8 mphPartly Cloudy
7:50 AM62.6 °F60.8 °F94 %29.89 in6.2 miENE (70°)5.8 mphPartly Cloudy
8:20 AM64.4 °F62.6 °F94 %29.89 inENE (60°)6.9 mphClear
8:50 AM68.0 °F64.4 °F88 %29.86 inENE (70°)6.9 mphClear
9:20 AM75.2 °F66.2 °F73 %29.86 inEast (100°)6.9 mphClear
9:50 AM77.0 °F66.2 °F69 %29.86 inSE (130°)9.2 mphClear
10:20 AM78.8 °F66.2 °F65 %29.83 inSE (130°)8.1 mphClear
10:50 AM80.6 °F66.2 °F61 %29.83 inSE (130°)9.2 mphClear
11:20 AM80.6 °F64.4 °F58 %29.83 inSE (140°)10.4 mphClear
11:50 AM80.6 °F66.2 °F61 %29.80 inSE (140°)10.4 mphClear
12:20 PM82.4 °F66.2 °F58 %29.80 inSSE (150°)9.2 mphClear
12:50 PM84.2 °F64.4 °F51 %29.80 inVariable9.2 mphClear
1:20 PM86.0 °F64.4 °F48 %29.80 inSouth (170°)11.5 mphClear
1:50 PM86.0 °F64.4 °F48 %29.77 inSouth (170°)11.5 mphClear
2:20 PM87.8 °F64.4 °F46 %29.77 inSouth (170°)11.5 mphClear
2:50 PM87.8 °F62.6 °F43 %29.77 inSouth (170°)11.5 mphClear
3:20 PM89.6 °F62.6 °F40 %29.77 inSSE (160°)10.4 mphClear
3:50 PM89.6 °F60.8 °F38 %29.74 inSSE (150°)11.5 mphClear
4:20 PM89.6 °F60.8 °F38 %29.74 inSE (140°)12.7 mph26.5 mphClear
4:50 PM87.8 °F62.6 °F43 %29.74 inSE (130°)12.7 mphClear
5:20 PM87.8 °F64.4 °F46 %29.74 inSE (140°)11.5 mphClear
5:50 PM87.8 °F64.4 °F46 %29.71 inSE (130°)11.5 mphClear
6:20 PM86.0 °F64.4 °F48 %29.71 inSE (140°)10.4 mphClear
6:50 PM86.0 °F64.4 °F48 %29.71 in6.2 miSE (140°)9.2 mphPartly Cloudy
7:20 PM84.2 °F64.4 °F51 %29.71 inSSE (160°)8.1 mphClear
7:50 PM84.2 °F64.4 °F51 %29.71 inSouth (170°)5.8 mphClear
8:20 PM82.4 °F60.8 °F48 %29.71 inSouth (180°)5.8 mphClear
8:50 PM78.8 °F60.8 °F54 %29.71 inSouth (170°)4.6 mphClear
9:20 PM77.0 °F60.8 °F57 %29.74 inSouth (180°)3.5 mphClear
9:50 PM75.2 °F60.8 °F61 %29.74 inSouth (170°)4.6 mphClear
10:20 PM75.2 °F60.8 °F61 %29.74 inSSW (210°)4.6 mphClear
10:50 PM73.4 °F62.6 °F69 %29.77 inSSW (210°)8.1 mphClear
11:20 PM71.6 °F62.6 °F73 %29.77 inSW (220°)4.6 mphClear
11:50 PM69.8 °F60.8 °F73 %29.77 inSSW (210°)3.5 mphClear
Hourly data recorded from EGKK, located miles away from London, England







STORIES FROM OUR PARTNERS